Location: Recife
(8.0585°S, 34.8848°W)
Time: 12:30:09
(UTC-03:00)

Courier 1B - Pass Details

Date: 23 April 2026
Orbit: 962 x 1209 km, 28.3° (Epoch: 7 May)

Event Time Altitude Azimuth Distance (km) Brightness Sun altitude
Rises 23:09:49 0° 333° (NNW) 3,632 - -84.8°
Reaches altitude 10° 23:13:34 10° 354° (N) 2,710 - -85.1°
Maximum altitude 23:17:25 16° 31° (NNE) 2,328 - -85.2°
Drops below altitude 10° 23:21:21 10° 67° (ENE) 2,791 - -85.1°
Sets 23:25:18 0° 87° (E) 3,796 - -84.9°
